Weather WX

World > North America > United States > Nevada

Pequop, Nevada Regional Weather

Lat: 41.22N, Lon: 114.59W
Wx Zone: NVZ031
Feedback

Pequop, NV Regional Weather

Expires:201907192100;;315958
ASUS45 KREV 192010
RWRNV 
NEVADA REGIONAL WEATHER ROUNDUP
NATIONAL WEATHER SERVICE RENO NV
100 PM PDT FRI JUL 19 2019

NOTE: "FAIR" INDICATES FEW OR NO CLOUDS BELOW 12,000 FEET WITH NO
SIGNIFICANT WEATHER AND/OR OBSTRUCTIONS TO VISIBILITY.


NVZ030-031-036-192100-
NORTHERN NEVADA
  
CITY           SKY/WX    TMP DP  RH WIND       PRES   REMARKS
ELKO           SUNNY     89  46  22 SW13      29.97F                  
WINNEMUCCA     SUNNY     87  42  20 VRB3      29.97F                  
BATTLE MOUNTAI   N/A     88  43  20 N9        29.95F                  
WENDOVER       SUNNY     90  44  20 SE12      29.91F                  
$$


SKY/WX - Weather  TMP - Temperature  DP - Dew Point  RH - Relative Humidity
WIND - Wind Direction/Speed PRES - Barometric Pressure VSB - Visibility
WCI - Wind Chill Index E13G22 Wind - East Wind 13 mph/Gusts of 22 mph